Home   Weather   Lincoln   Past weeks
Flag for USA

Past Weather in Lincoln, Nebraska, USA — Yesterday and Last 2 Weeks

Now
86 °F

Passing clouds.


Feels Like: 87 °F
Forecast: 85 / 59 °F
Wind: 10 mph from South

Location: Lincoln Municipal Airport

Current Time: Jun 20, 2019 at 5:08:47 pm

Latest Report: Jun 20, 2019 at 3:54 pm


Visibility: 10 mi

Pressure: 29.69 "Hg

Humidity: 48%

Dew Point: 64 °F

Location of LincolnLocation

Past Weather in Lincoln — Graph

°F

Lincoln Temperature Yesterday

Maximum temperature yesterday: 77 °F (at 4:54 pm)
Minimum temperature yesterday: 62 °F (at 11:54 pm)
Average temperature yesterday: 67 °F

High & Low Weather Summary for the Past Weeks

 TemperatureHumidityPressure
High91 °F (Jun 5, 3:54 pm)100% (Jun 12, 3:18 am)30.38 "Hg (Jun 12, 3:18 am)
Low47 °F (Jun 13, 4:54 am)21% (Jun 12, 3:54 pm)29.60 "Hg (Jun 15, 4:54 am)
Average70 °F67%29.91 "Hg
* Reported Jun 5 3:54 pm — Jun 20 3:54 pm, Lincoln. Weather by CustomWeather, © 2019

Note: Actual official high and low records may vary slightly from our data, if they occured in-between our weather recording intervals... More about our weather records

Advertising

Lincoln Weather History for the Previous 24 Hours

Scroll right to see more
 ConditionsComfort  
Time TempWeatherWind HumidityBarometerVisibility
3:54 pm
Thu, Jun 20
86 °FPassing clouds.10 mph48%29.69 "Hg10 mi
2:54 pm84 °FBroken clouds.9 mph49%29.70 "Hg10 mi
1:54 pm83 °FPassing clouds.12 mph51%29.70 "Hg10 mi
12:54 pm82 °FSunny.9 mph49%29.70 "Hg10 mi
11:54 am79 °FSunny.13 mph58%29.69 "Hg10 mi
10:54 am76 °FSunny.14 mph69%29.68 "Hg10 mi
9:54 am72 °FSunny.9 mph78%29.72 "Hg10 mi
8:54 am66 °FLight rain. Overcast.7 mph90%29.75 "Hg9 mi
7:54 am63 °FLight rain. Passing clouds.8 mph93%29.74 "Hg7 mi
6:54 am62 °FLight rain. Partly sunny.3 mph90%29.75 "Hg7 mi
5:54 am61 °FClear.9 mph90%29.70 "Hg10 mi
4:54 am60 °FClear.No wind93%29.72 "Hg10 mi
3:54 am60 °FClear.3 mph93%29.69 "Hg10 mi
2:54 am62 °FClear.No wind90%29.70 "Hg10 mi
1:54 am61 °FClear.3 mph90%29.69 "Hg10 mi
12:54 am62 °FClear.No wind90%29.69 "Hg10 mi
11:54 pm
Wed, Jun 19
62 °FClear.No wind86%29.71 "Hg10 mi
10:54 pm67 °FClear.No wind79%29.72 "Hg10 mi
9:54 pm66 °FClear.No wind78%29.72 "Hg10 mi
8:54 pm68 °FSunny.6 mph73%29.71 "Hg10 mi
7:54 pm74 °FLight rain. Sunny.7 mph67%29.69 "Hg10 mi
6:54 pm73 °FBroken clouds.8 mph71%29.70 "Hg10 mi
5:54 pm75 °FPassing clouds.6 mph60%29.70 "Hg10 mi
Weather by CustomWeather, © 2019

See weather overview